COSMOS 2251 DEB, 39591

Orbit data source: Space-Track

COSMOS 2251 DEB, 39591 is space debris in LEO originally from a launch on Wed, 16 Jun 1993 UTC launched from the Plesetsk Missile And Space Complex (PKMTR). The debris from Iridium 33, an American commercial communications satellite, has been tracked extensively since its accidental collision with the defunct Russian satellite Cosmos 2251 in 2009. This event, occurring at high speed in low Earth orbit (LEO), generated thousands of pieces of space debris, significantly increasing the risk of further collisions. The Iridium 33 debris cloud has impacted space traffic management and orbital debris mitigation strategies, making it a subject of ongoing study in space situational awareness.

Loading next visibility...
Identifier
39591, 1993-036BUW
Orbit
LEO
Country
Flag of CISCIS
Related business
Manufacturer
Unknown
Mission
Spacecraft
Bus & Motor
Unknown
Mass
Unknown
Launch date (UTC)
1993-06-16 (33 years ago)
Launch vehicle
Unknown
Launch site
Plesetsk Missile And Space Complex (PKMTR)
Object type
Payload
Rocket body
Debris
Shape & HBR
Unknown shape, 0.1 m
Radar Cross Section
Small (<0.1 m²)

Expand to show TLE details & history
Last TLE update: 6 days ago

TLE from 6 days ago
0 COSMOS 2251 DEB
1 39591U 93036BUW 26167.54783486  .00000692  00000-0  21655-3 0  9994
2 39591  74.0203 261.9482 0030241 331.8677  47.6949 14.42287636644558
Epoch: 2026-06-16T13:08Z
TLE epoch observation values (Epoch: 2026-06-16T13:08:52.931Z)
Latitude
19.02791°
Longitude
165.5466°
Altitude
738.598 km
Speed
7.495 km/s
True Right ascension
17h 50m 20s
True Declination
18° 55' 19"
Sunlit
Object was in full shadow at epoch
Visualization orbit readout
Latitude
Unknown
Longitude
Unknown
Altitude
Unknown
Speed
Unknown
Apparent Right ascension
Unknown
Apparent Declination
Unknown
Sunlit
N/A
Visualization observer readout
Local Sidereal Time
07:06:44
Azimuth
Unknown
Elevation
Unknown
Doppler factor
Unknown
Orbital elements
Apogee altitude
770.12 km
Perigee altitude
727.017 km
Semi-major axis
7,126.705 km
Eccentricity
0.00302
Inclination
74.0203°
RAAN
261.9482°
Arg. of periapsis
331.8677°
True anomaly
47.95184°
Mean anomaly
47.6949°
Eccentric anomaly
47.82331°
Mean motion
3.60753 °/min
Orbital period
99.79 mins
BSTAR
0.00021655

Documentation

Showing up to 5 results
|